{"data":{"norad_id":55349,"epoch":"2026-05-24T17:24:05.777568Z","epoch_age_seconds":98781,"freshness":"FRESH","line1":"1 55349U 23013U   26144.72506687  .00049017  00000+0  17992-2 0  9993","line2":"2 55349  42.9985 233.8550 0000344 160.2249 199.8616 15.27208023183301","mean_motion":15.27208023,"eccentricity":3.44e-5,"inclination_deg":42.9985,"raan_deg":233.855,"arg_perigee_deg":160.2249,"mean_anomaly_deg":199.8616,"bstar":0.0017992,"rev_number":18330,"period_min":94.289708953421,"perigee_km":483.9270919414,"apogee_km":484.39921819206,"semimajor_km":6862.3001550667,"source":"CELESTRAK","updated_at":"2026-05-25T13:38:17.763284Z"}}